RH
14 16 18 19 19 18 18 18 19 19 19 20 19 20 20 19 20 21 24 25 22 21 19 19 18 17 16 15 17 18 23 24 19 21 24 23 21 18 18 18 18 20 17 15 17 16 14 14 12 9 7 9 12 15 17 14 14 20 24 27 28 28 27 24 22 24 23 21 21 20 23 27 28 26 23 27 34 36 37 31 25 22 21 23 25 24 26 27
16 17 19 19 18 17 18 18 19 19 19 20 19 20 19 19 20 21 25 26 25 25 23 20 18 18 17 15 16 15 18 20 17 24 27 21 19 18 17 17 19 20 17 19 21 14 12 11 8 8 5 8 13 14 16 13 14 19 22 24 27 27 25 20 19 20 21 22 22 22 24 24 27 25 19 30 41 40 40 36 28 24 21 20 21 22 23 23
17 19 19 18 17 17 18 18 18 19 19 20 20 20 19 19 20 22 25 26 26 27 25 22 19 19 18 17 17 14 18 21 16 20 23 20 19 16 16 18 19 19 18 25 26 17 14 13 10 10 6 8 11 12 15 16 17 17 19 26 26 23 20 17 18 20 20 21 19 21 26 26 27 25 23 35 44 42 41 38 33 29 23 21 20 20 21 22
19 20 18 17 17 17 18 18 19 19 19 20 21 19 19 19 21 23 24 25 25 23 22 20 19 19 18 18 18 17 22 24 18 18 20 19 18 15 17 19 19 21 20 23 24 17 15 13 11 9 10 13 12 11 14 16 19 19 21 27 23 18 18 18 19 20 20 20 18 20 27 29 28 27 29 35 44 46 40 36 35 30 23 21 21 21 21 21
20 19 17 17 17 17 18 18 18 19 19 20 20 19 19 19 21 24 24 24 23 19 17 18 19 19 18 17 16 19 25 27 21 18 20 19 17 16 18 19 19 21 22 25 24 17 15 13 10 11 15 18 16 16 17 14 17 23 23 22 19 16 18 18 19 22 22 21 21 23 27 28 27 29 33 36 45 47 38 33 34 28 23 21 20 21 21 22
19 18 17 17 17 17 18 18 19 18 19 19 19 18 18 19 21 24 23 23 22 17 16 19 19 19 19 15 15 21 25 26 21 18 20 19 17 18 18 18 20 21 22 27 23 14 12 11 11 15 17 17 18 20 18 14 17 27 25 18 17 17 16 17 19 24 24 23 25 27 26 26 28 32 33 36 43 40 32 31 32 29 24 22 21 22 22 24
18 17 17 16 17 18 18 18 19 18 18 18 17 17 17 19 21 23 22 22 22 17 15 17 16 18 18 19 27 25 18 20 19 18 20 19 19 18 19 19 20 21 18 18 15 11 13 12 13 17 19 20 20 21 19 16 18 28 26 18 17 16 15 18 20 22 23 23 25 26 24 26 31 33 30 33 37 34 32 30 30 28 23 23 25 26 26 25
17 17 16 17 17 18 18 18 18 18 18 17 17 17 16 18 20 21 21 21 22 19 17 17 15 18 15 19 34 25 14 18 18 19 20 19 19 17 19 19 19 19 12 11 12 12 13 12 15 20 22 21 20 23 25 23 25 28 25 18 15 16 16 18 20 20 21 22 23 24 24 25 27 28 28 28 27 26 26 25 25 24 23 24 26 27 27 25
17 17 16 17 18 18 19 18 20 19 19 18 17 16 16 18 19 20 21 20 21 18 17 16 17 25 22 23 31 21 15 19 17 19 20 20 20 18 20 19 20 17 11 12 13 12 13 13 15 17 21 19 20 28 30 33 35 29 23 17 14 14 15 18 18 18 19 20 21 23 24 25 23 25 28 25 22 21 20 20 20 19 21 23 24 26 26 26
16 16 16 18 18 19 20 20 21 21 20 18 17 16 16 17 18 19 21 20 19 15 13 14 17 25 24 21 24 18 16 18 18 19 20 22 21 19 20 19 21 18 12 13 13 16 16 16 16 15 21 21 23 30 33 39 38 28 22 18 15 13 13 16 16 16 18 17 18 21 25 24 21 27 32 26 20 20 19 19 18 18 20 20 23 25 24 23
16 16 17 18 19 21 21 21 22 21 21 19 18 17 15 16 17 20 20 19 18 15 12 13 15 18 15 13 17 17 16 18 18 18 20 23 21 20 20 20 22 18 14 13 14 19 19 19 19 19 27 26 24 29 33 39 35 25 22 22 21 15 12 13 13 16 18 19 18 17 23 24 24 31 32 25 21 19 19 20 19 19 20 19 21 22 21 22
16 16 18 19 21 22 22 22 22 21 20 19 18 16 15 16 18 21 19 17 17 15 14 16 19 19 14 14 17 16 16 17 17 17 20 22 21 21 21 22 23 19 16 14 16 21 21 19 20 28 35 32 29 31 32 34 30 23 21 27 27 19 16 13 11 15 16 20 19 18 28 31 31 32 26 22 21 19 19 20 20 20 20 20 20 20 22 22
16 18 19 20 21 22 22 21 20 18 18 17 17 15 15 17 19 20 17 15 15 15 14 15 19 19 15 18 17 13 16 16 14 16 19 21 21 21 21 21 20 20 19 18 19 19 18 18 22 32 35 34 37 36 32 29 27 26 25 30 30 25 24 16 12 15 14 20 20 26 42 39 31 28 24 23 21 19 21 20 21 20 19 20 20 20 22 22
18 20 21 22 22 22 20 19 18 18 18 16 15 15 16 17 18 17 15 14 14 13 14 16 19 20 18 18 15 12 14 14 14 15 17 19 20 19 20 19 17 19 18 17 16 14 15 16 21 29 31 34 36 34 32 27 26 29 29 31 29 27 25 17 18 18 15 21 17 25 45 38 28 28 24 23 21 20 22 20 21 21 19 21 20 20 21 22
20 21 21 22 22 21 18 17 19 20 19 17 15 16 16 17 17 16 15 14 13 13 16 20 20 20 20 17 12 13 13 13 13 13 15 17 18 18 18 18 18 17 15 14 12 12 14 14 21 29 30 33 30 30 34 29 24 24 29 33 26 24 23 18 21 21 19 22 14 22 41 34 27 28 24 23 22 20 21 21 21 20 20 20 20 20 20 21
21 21 21 21 21 20 17 16 17 18 19 18 16 17 17 17 17 16 15 13 13 14 17 20 18 15 18 15 10 11 11 11 12 12 14 16 17 17 17 17 17 15 13 12 12 14 13 14 27 31 24 25 27 28 32 31 26 22 30 32 23 24 27 22 25 28 28 27 19 22 33 30 26 27 24 23 23 21 21 21 21 21 20 20 20 21 21 22
21 20 20 19 19 18 15 15 16 16 17 16 16 16 15 16 16 16 16 15 14 15 15 17 16 14 14 13 10 11 11 11 12 11 13 16 17 17 17 15 14 13 13 12 12 14 13 16 27 25 18 21 27 29 29 33 35 33 34 29 22 27 33 28 26 33 36 32 27 22 23 25 26 27 25 23 22 22 23 22 22 21 21 22 22 21 21 22
21 21 20 18 18 17 15 16 15 15 16 15 16 15 13 13 11 12 16 16 17 20 18 15 17 21 18 13 11 12 12 12 12 11 12 15 15 16 17 14 13 13 13 13 11 12 14 17 18 19 23 25 31 39 39 38 44 48 44 37 37 39 37 28 21 31 40 34 31 26 20 21 25 27 25 24 23 22 23 21 22 22 21 23 23 23 23 23
21 20 19 18 17 16 16 15 15 15 15 15 17 16 16 18 14 14 16 17 21 25 27 25 21 22 20 13 12 12 13 13 11 10 12 14 14 15 14 12 13 14 18 19 14 14 18 22 25 29 37 35 33 44 45 42 47 51 49 48 52 44 33 24 17 28 41 37 32 27 20 18 23 29 26 24 24 23 23 21 22 22 21 23 23 25 25 24
22 19 19 18 15 14 14 13 13 14 14 16 22 24 24 25 19 18 23 24 25 26 30 30 21 15 14 13 12 13 14 12 9 11 14 15 15 15 13 14 17 18 25 29 21 17 20 31 41 41 42 38 32 39 43 42 45 50 55 54 45 33 25 19 15 26 39 41 35 27 25 22 20 26 27 25 24 23 23 22 23 23 23 25 25 28 27 26
21 19 19 18 14 14 13 12 13 13 16 19 23 29 35 38 31 26 30 30 29 26 22 20 15 12 14 13 13 15 16 12 9 12 15 15 14 16 18 19 21 21 25 31 25 17 20 32 42 38 35 35 36 42 40 35 36 46 58 52 32 24 22 17 19 31 36 41 40 32 32 30 21 23 27 26 25 25 23 22 23 24 24 26 26 28 29 27
20 18 18 16 15 16 13 13 12 11 16 17 19 28 35 41 39 35 33 29 31 28 19 15 12 11 14 13 14 15 15 13 11 12 15 15 14 22 28 23 22 25 23 26 25 21 24 31 33 30 33 37 37 40 36 27 31 42 50 43 28 24 24 20 23 28 28 33 37 30 30 30 22 23 26 26 26 24 23 23 25 26 26 27 27 29 30 29
18 16 16 15 15 15 14 14 12 10 13 16 25 34 32 30 28 31 35 29 30 30 22 20 16 12 13 12 14 15 14 16 16 14 15 17 19 26 33 29 28 29 26 25 23 23 27 27 27 32 40 45 38 34 34 30 31 38 40 36 29 26 28 30 26 25 26 30 31 30 34 35 28 27 27 26 26 24 26 30 31 32 30 30 30 29 30 31
17 16 16 15 14 16 15 14 13 13 16 17 24 29 25 23 19 26 38 30 27 30 23 21 16 13 16 14 15 17 16 18 16 15 16 21 25 26 31 36 35 34 36 36 28 29 33 23 26 41 44 41 35 33 40 39 33 35 38 36 30 25 28 31 28 27 28 30 37 43 41 35 31 34 33 28 28 29 31 33 33 33 31 31 31 29 31 32
16 15 14 14 15 15 16 20 18 18 24 24 25 24 18 21 19 23 37 30 21 27 25 22 16 12 16 15 15 20 21 20 16 15 18 22 28 30 33 35 32 37 47 45 31 30 37 28 31 44 36 28 28 32 41 41 34 35 38 34 26 25 29 31 31 35 35 32 39 47 45 38 29 29 35 34 33 34 33 34 33 31 31 33 32 29 29 27
16 15 15 14 14 15 20 24 19 23 36 31 25 24 21 23 20 22 38 35 22 24 24 23 19 16 18 16 18 27 28 22 15 14 20 23 27 33 36 31 29 40 48 45 32 27 32 31 33 37 28 24 25 26 32 38 40 40 36 31 27 30 36 38 37 42 44 35 30 35 42 41 25 17 31 39 38 36 34 34 33 32 31 32 29 25 24 21
16 16 15 14 13 16 24 24 20 32 48 38 23 22 25 26 21 26 40 36 24 22 21 21 19 16 21 21 18 23 26 22 17 14 20 24 23 29 38 36 34 37 40 43 37 31 35 37 41 40 27 22 22 21 26 34 39 38 33 32 31 35 41 42 44 47 44 36 30 30 30 28 20 17 33 44 41 39 38 36 36 35 31 27 25 24 23 21
17 15 15 16 14 14 19 22 30 40 38 28 22 24 29 26 23 35 41 27 19 21 21 24 20 12 21 25 20 21 24 24 24 20 18 21 21 26 34 38 38 34 38 46 36 33 42 42 51 55 33 20 22 23 27 36 40 35 33 35 34 39 40 35 43 47 40 40 42 32 20 22 23 16 27 43 44 42 41 41 40 36 30 27 26 24 22 22
17 15 16 15 13 15 14 17 33 38 22 16 24 27 26 25 30 41 36 20 20 26 23 23 20 17 25 28 23 26 26 25 29 26 21 21 20 22 31 40 45 38 39 43 31 32 44 42 53 58 33 21 26 26 29 37 42 36 36 38 35 36 31 28 44 48 41 47 48 30 16 25 30 18 24 44 50 49 47 44 41 35 30 28 27 25 22 22
13 13 14 11 17 24 17 14 23 25 19 19 25 25 24 31 37 37 27 21 29 34 30 27 26 28 32 31 27 29 29 26 28 29 26 25 22 24 33 41 45 41 37 37 33 38 47 48 55 51 32 29 31 26 30 39 43 42 39 35 30 27 21 24 36 38 40 45 37 22 16 27 35 28 36 53 57 58 57 48 40 33 28 27 26 26 23 22
9 11 11 9 19 24 26 34 26 17 20 21 23 31 38 38 35 28 24 30 37 36 32 33 36 37 37 37 32 31 34 29 29 34 33 30 28 29 33 39 43 41 33 32 37 44 47 46 50 49 42 40 32 23 29 37 43 43 34 27 27 26 21 22 25 27 37 39 27 19 20 29 36 36 47 59 55 56 56 48 40 32 25 23 24 25 24 23
10 13 14 16 20 19 34 49 31 17 23 22 26 43 46 35 27 27 28 33 41 38 35 37 40 42 42 39 33 34 38 31 28 37 38 36 41 42 40 46 52 44 33 34 37 37 39 39 42 47 45 37 28 22 22 26 30 28 22 29 38 35 32 34 33 34 38 34 25 20 25 31 30 32 46 52 50 48 44 38 35 29 23 21 24 25 24 23
13 14 14 19 23 21 32 36 23 21 22 23 38 48 39 26 25 33 30 27 38 40 41 47 45 45 45 35 30 34 37 33 31 34 34 34 42 47 44 47 54 49 42 40 33 27 33 37 37 40 38 30 25 23 22 23 26 25 23 35 44 43 50 53 42 41 43 37 27 21 30 36 29 34 44 42 42 41 34 32 31 25 22 22 25 25 23 22
17 17 13 14 16 20 26 25 23 23 21 31 48 45 34 25 26 37 32 26 38 41 41 50 48 44 40 30 30 36 34 34 35 33 32 29 31 40 43 46 52 52 48 44 33 28 34 37 36 34 29 28 29 30 33 35 34 29 23 32 40 40 54 61 50 51 55 45 31 25 33 40 36 42 45 38 39 39 33 31 26 21 22 24 25 23 22 22
20 23 20 14 12 15 19 23 22 19 27 42 44 36 33 25 21 30 36 36 41 40 41 49 47 39 32 28 33 39 37 35 33 33 34 32 33 40 44 49 53 53 55 52 38 30 31 30 33 35 27 24 31 35 39 42 38 29 23 32 42 38 44 56 50 46 49 44 36 31 32 31 27 35 41 38 37 35 30 24 18 20 24 25 25 22 20 22
23 30 28 17 14 13 13 20 18 16 34 46 36 33 37 35 31 35 45 49 45 46 50 46 40 33 27 28 32 36 40 40 35 32 34 39 46 48 48 54 56 53 56 55 44 39 39 31 28 35 32 23 25 30 36 40 34 28 31 38 42 37 39 55 53 36 37 47 42 35 37 33 25 32 39 35 30 26 23 19 15 21 25 23 23 21 21 22
20 29 28 17 14 14 13 15 13 20 37 39 35 37 37 41 46 47 53 53 49 55 50 34 32 32 28 28 29 33 39 40 36 29 27 37 49 51 51 53 52 51 52 53 50 45 48 45 32 30 33 29 32 36 35 40 38 35 40 39 38 42 42 47 51 43 46 58 49 39 46 45 38 42 39 30 28 25 21 18 19 23 25 24 22 21 21 21
23 29 29 20 13 14 16 15 18 31 36 31 38 44 39 46 54 55 61 60 58 58 41 28 33 32 28 30 29 32 37 37 33 26 23 33 45 53 57 55 51 50 52 56 57 48 51 59 42 23 24 30 39 42 34 38 43 40 40 36 40 61 64 49 46 53 62 67 54 43 45 43 41 45 41 33 30 25 19 19 25 27 26 24 22 21 21 21
32 34 30 20 11 11 16 19 25 36 35 32 43 46 44 56 62 62 69 69 63 54 36 30 34 30 30 35 31 31 37 38 33 27 28 36 48 59 60 56 54 55 56 62 61 49 50 62 49 26 21 24 29 32 27 31 40 39 38 37 37 51 62 55 50 54 60 60 54 51 50 43 38 38 37 33 26 20 22 26 29 28 26 23 22 21 22 22
35 35 27 15 9 10 14 18 24 33 37 40 45 45 48 60 64 65 75 77 65 49 38 35 35 33 34 36 35 33 35 36 30 27 31 38 52 66 66 62 64 65 65 67 63 50 44 50 48 33 24 24 26 27 23 24 32 38 41 46 49 50 55 58 52 43 45 54 58 60 60 46 33 30 31 29 23 20 24 29 30 29 26 23 21 21 22 22
32 34 28 13 8 11 17 25 28 30 36 40 44 51 55 58 61 64 74 83 71 53 46 44 41 40 37 37 37 35 34 33 29 27 33 41 52 64 72 76 76 75 73 64 56 53 49 46 49 43 28 23 29 30 28 27 28 35 42 46 52 58 62 69 62 41 39 53 58 64 72 55 32 27 28 24 20 21 25 30 32 30 26 24 22 22 22 21
34 32 24 12 8 11 22 36 38 35 41 48 53 59 57 51 53 57 64 74 68 54 49 46 44 43 41 42 41 37 36 35 32 31 35 49 59 64 74 82 80 80 78 63 52 57 61 57 58 51 29 22 34 36 34 37 34 34 41 42 46 57 68 80 77 58 55 61 57 62 73 55 29 24 25 20 19 24 28 29 30 28 25 24 23 22 22 20
37 28 19 13 9 12 26 39 43 44 50 54 55 56 55 49 45 47 53 58 56 50 45 43 46 46 45 47 45 41 39 38 37 36 36 51 67 72 77 81 77 73 69 63 62 67 65 53 47 41 23 21 39 40 36 44 45 36 35 41 53 61 65 74 76 71 77 76 61 67 74 52 29 24 21 19 23 27 29 27 26 26 24 24 24 23 22 21
36 28 22 16 8 17 36 42 43 47 47 46 47 50 55 55 51 52 54 52 50 46 40 40 46 47 46 47 46 41 37 37 40 40 37 48 69 79 79 80 76 66 61 65 71 76 70 47 34 39 35 29 36 36 35 41 38 28 25 39 61 67 64 72 74 72 78 68 53 70 82 55 30 23 18 20 28 32 30 25 24 25 25 26 26 22 20 22
34 29 26 20 14 25 42 41 39 45 46 44 45 44 47 51 53 58 56 50 51 48 42 42 46 47 45 46 48 42 34 34 39 39 36 48 72 85 83 82 77 67 69 76 75 80 80 52 31 38 46 45 44 39 35 33 28 27 27 36 60 74 73 75 77 76 77 66 55 70 75 48 27 23 22 27 35 34 29 26 26 26 26 26 26 24 24 26
35 32 31 27 24 31 41 39 35 38 41 41 39 35 38 41 48 58 58 52 52 50 43 41 43 43 40 43 47 39 32 35 40 41 42 49 64 74 79 82 76 71 80 87 84 84 76 53 37 36 40 45 44 36 31 31 32 37 37 35 53 79 82 76 78 76 70 66 62 55 48 41 34 29 29 35 38 33 28 29 30 28 27 26 25 26 29 30
35 38 38 35 36 37 38 41 42 41 38 38 36 35 38 38 39 48 55 53 52 52 46 40 44 46 41 44 48 39 34 37 39 44 49 49 52 62 75 77 71 79 88 82 75 69 55 51 53 43 37 41 40 33 34 37 34 31 33 33 45 71 81 74 73 64 54 62 63 40 32 44 43 34 37 41 35 31 31 31 31 29 28 27 26 28 31 32
31 38 39 38 43 43 39 43 50 49 41 38 40 38 35 33 35 43 49 47 46 49 45 42 48 48 45 49 49 41 40 40 45 56 55 50 54 61 67 66 63 77 82 62 53 54 48 54 60 52 46 45 43 42 37 33 27 21 26 33 38 53 63 60 58 48 42 53 52 34 32 44 42 38 40 36 29 30 33 30 29 29 29 28 28 29 30 33
32 36 37 38 43 42 40 45 53 52 41 35 40 42 36 33 39 48 51 46 43 41 40 45 52 52 51 51 43 43 49 48 54 66 60 58 67 60 57 62 56 54 54 44 49 61 59 57 57 59 61 52 46 44 32 25 24 24 32 40 37 38 43 44 45 38 34 39 36 33 41 44 40 40 37 29 26 30 31 28 27 28 29 31 32 30 32 36
36 36 34 38 41 38 37 41 48 47 35 30 38 43 40 39 42 48 50 49 48 43 43 51 55 54 56 52 44 53 65 62 62 64 55 60 71 61 56 63 58 49 44 44 55 61 55 52 51 59 69 57 40 34 27 25 25 26 35 39 32 31 35 39 40 36 36 41 36 38 52 52 41 36 32 28 30 31 30 29 29 28 29 33 34 32 35 41
28 27 28 33 35 34 35 33 35 37 33 35 45 47 47 49 49 48 49 55 60 59 60 62 59 55 53 47 51 67 72 66 66 63 57 60 65 60 58 59 59 56 48 50 66 66 56 57 57 61 71 58 33 27 27 24 26 36 43 37 29 34 39 38 37 35 37 45 47 52 64 60 43 32 30 32 32 32 31 31 33 35 33 32 33 35 39 45
23 23 28 37 34 30 35 34 31 33 36 46 58 60 58 58 55 51 49 55 65 67 67 68 64 58 50 49 64 78 72 63 62 58 53 52 50 50 55 55 55 55 50 56 69 63 56 67 66 62 68 57 33 30 30 28 40 56 53 37 29 32 35 34 34 32 31 38 51 63 63 50 35 31 34 35 32 33 35 34 37 39 35 31 34 38 43 45
Wind_Speed
4 3 3 3 3 4 4 4 3 3 3 4 4 4 3 2 5 7 9 9 9 8 4 2 2 3 4 4 2 1 2 3 12 16 13 14 24 21 16 15 16 17 14 10 10 11 10 9 6 2 4 4 1 1 0 1 1 1 2 3 2 2 3 3 4 4 4 5 7 7 7 6 4 4 1 7 10 9 8 9 9 10 10 10 11 12 14 17
4 3 3 3 4 4 4 3 3 4 4 5 5 4 2 2 5 7 8 10 10 9 7 3 2 3 3 2 2 3 6 5 12 15 11 22 26 16 13 13 13 14 12 9 9 10 8 7 6 5 5 2 2 1 1 0 0 2 3 2 1 3 2 2 5 4 4 5 5 4 8 7 4 4 3 4 7 7 8 7 7 8 8 10 12 13 15 17
3 3 3 3 3 3 3 4 4 5 6 6 5 3 1 2 4 7 9 11 11 10 8 5 2 4 6 5 5 4 8 8 10 13 15 27 20 10 11 11 11 11 9 7 8 10 8 7 7 6 5 2 1 1 1 0 0 1 2 2 2 3 1 4 6 4 4 4 5 2 8 7 5 4 3 5 8 8 7 5 5 6 7 8 9 12 15 16
3 3 3 3 3 3 3 5 5 6 6 6 4 2 3 3 5 7 9 11 12 11 8 5 4 2 5 7 6 4 7 6 7 12 22 25 13 8 9 10 11 10 8 6 8 9 8 8 7 5 4 1 1 0 0 1 1 1 1 2 3 3 2 5 5 4 4 3 5 2 7 8 5 6 4 4 6 6 5 5 4 5 7 7 7 10 13 15
3 3 3 3 2 3 5 5 6 6 7 8 6 6 4 4 5 8 10 11 12 12 7 5 7 6 2 4 7 4 4 2 5 15 25 20 10 8 8 11 12 10 11 8 8 9 9 8 5 3 3 1 1 1 1 2 1 1 2 2 3 4 2 4 5 5 5 4 3 2 4 6 5 6 7 4 4 4 4 5 5 5 6 6 7 9 11 13
3 2 2 2 3 5 5 6 6 7 7 8 7 6 4 5 6 8 10 11 12 13 7 4 7 10 10 6 5 5 1 2 7 18 22 16 10 9 9 11 11 11 12 10 8 7 5 5 4 2 1 1 2 2 2 2 0 0 1 2 3 4 3 4 4 2 4 3 1 2 5 5 6 6 5 6 6 5 5 6 5 5 7 8 8 9 9 10
2 2 2 3 5 5 6 6 7 7 7 6 5 4 4 5 6 8 10 11 11 12 8 2 2 5 6 6 2 1 5 4 10 19 19 13 10 8 9 11 12 12 11 10 9 6 5 6 2 2 1 2 2 3 2 1 0 0 1 2 3 2 3 4 2 1 2 2 2 3 5 5 6 5 4 7 6 6 5 5 6 7 8 8 8 7 8 9
2 3 4 4 5 5 6 7 7 6 5 4 3 3 4 4 6 7 9 11 9 10 11 5 2 4 4 2 2 2 7 7 14 19 18 13 9 9 9 10 13 12 10 12 13 8 4 6 5 3 1 2 1 1 1 2 1 2 2 1 1 1 3 4 3 2 1 2 2 3 4 4 6 6 5 6 6 6 5 5 6 7 7 7 7 7 7 9
3 4 5 5 5 6 7 7 7 6 4 2 2 3 3 4 5 7 9 9 8 8 10 8 6 7 7 5 3 2 7 11 15 17 17 14 10 10 9 9 13 11 10 12 14 12 6 5 5 4 3 3 1 1 1 2 2 3 1 1 2 3 4 4 4 3 1 2 3 3 4 4 7 6 5 5 5 5 5 4 5 5 6 6 6 6 7 7
5 5 5 5 6 7 7 7 7 7 5 3 2 2 3 4 5 6 8 8 8 8 8 6 7 11 10 2 1 4 8 13 13 15 15 14 11 9 8 10 14 12 8 11 13 12 8 5 6 6 3 2 2 2 3 1 1 0 1 2 1 3 4 3 3 4 0 1 1 2 4 5 6 3 1 4 5 4 5 4 4 4 5 5 5 5 7 7
5 5 5 6 6 7 8 8 8 7 6 4 2 2 3 4 5 5 7 8 6 6 9 8 6 12 17 12 7 5 10 12 12 15 14 13 12 10 10 11 14 13 8 9 12 11 10 8 6 3 2 1 2 3 3 1 2 1 1 2 2 3 3 3 2 4 2 1 2 4 2 4 3 1 2 5 4 4 5 4 4 3 4 5 5 5 6 7
5 5 5 6 7 8 8 8 7 7 6 4 2 2 2 3 5 5 7 8 5 4 7 10 9 9 11 12 9 6 9 11 11 14 12 10 10 9 10 10 10 12 10 8 9 10 10 10 6 2 2 3 1 2 2 2 2 1 1 1 3 4 3 2 1 2 3 1 0 2 1 4 4 3 5 6 5 5 5 4 4 3 4 4 5 5 5 6
5 5 5 6 8 8 8 7 7 7 5 3 2 2 3 4 4 5 8 8 5 4 5 5 7 8 8 6 6 10 9 9 12 14 13 12 8 6 7 9 8 9 10 8 8 9 10 11 7 4 3 3 1 0 1 2 1 1 3 2 3 3 2 4 2 1 1 3 4 2 1 3 5 6 6 6 6 6 5 4 4 4 4 3 3 4 4 6
5 5 6 7 8 8 7 8 10 10 7 4 3 4 3 3 4 6 9 10 8 5 4 5 4 4 7 4 3 13 13 10 14 16 16 16 10 4 5 7 7 7 8 7 8 9 11 11 4 2 2 3 2 1 2 1 1 2 2 2 1 2 2 4 3 2 1 3 3 2 3 3 6 8 7 6 6 7 6 5 4 3 4 3 3 4 4 5
5 6 7 8 8 8 8 10 13 15 15 10 5 4 3 2 4 5 9 13 13 10 8 7 7 3 3 4 2 12 15 12 16 17 15 17 13 7 8 9 7 6 6 7 7 8 10 10 4 2 3 2 0 1 2 2 2 1 3 1 3 4 4 2 3 1 2 1 2 2 4 3 6 9 8 7 6 7 5 5 5 4 4 3 3 3 3 4
6 7 7 7 7 7 8 10 12 15 19 19 14 8 4 3 4 4 7 9 13 16 11 8 10 4 4 2 3 11 15 14 17 17 14 15 13 10 12 10 6 5 3 3 4 2 4 6 2 2 4 3 3 3 3 1 1 4 5 4 5 5 6 4 1 2 0 3 3 2 4 5 4 9 9 8 7 7 5 5 5 4 4 3 3 3 3 4
7 7 7 6 5 5 8 9 10 12 15 20 24 22 18 14 9 6 6 4 6 12 12 13 11 1 5 7 6 10 14 14 17 19 16 14 11 11 13 8 4 6 3 3 4 2 3 3 1 2 5 6 6 4 2 4 4 4 4 4 4 5 6 6 2 1 2 4 5 4 7 7 3 9 9 8 8 7 6 6 6 5 4 4 3 3 3 3
7 7 7 6 5 5 6 4 4 6 7 9 13 18 23 25 23 21 15 8 4 2 5 15 13 3 4 10 8 11 16 15 16 21 20 14 11 12 12 6 4 8 6 1 6 6 3 2 3 3 6 7 8 7 4 3 4 4 5 4 4 6 6 7 6 3 4 5 7 9 8 6 4 9 8 8 9 7 6 5 5 5 4 4 3 3 3 3
8 9 9 9 8 4 1 2 6 8 6 5 4 4 6 12 20 25 24 18 10 4 2 8 10 3 2 9 9 14 17 12 12 22 24 18 14 14 11 6 5 6 2 2 7 8 4 4 5 4 6 7 7 6 3 3 5 6 6 5 5 7 6 7 9 6 4 5 8 9 8 7 4 9 9 8 8 6 6 5 4 4 4 3 3 3 2 2
8 9 10 12 11 6 3 5 8 8 5 3 3 4 2 0 5 10 14 16 11 6 4 2 5 6 4 6 10 16 13 8 11 19 25 22 15 11 7 5 5 3 4 1 4 6 4 6 6 5 5 6 6 5 3 4 5 6 6 6 5 6 6 9 13 8 2 3 8 9 9 11 8 8 11 9 8 7 6 6 5 4 3 3 2 2 2 2
8 8 10 11 11 9 9 8 7 8 8 5 2 2 1 0 3 2 3 8 7 5 6 4 7 7 3 3 10 15 7 5 12 17 26 24 10 4 5 5 2 2 3 2 3 4 6 8 6 5 5 6 6 5 5 7 7 6 5 6 5 6 8 12 13 7 1 2 8 12 11 11 10 4 10 10 8 8 8 7 6 4 3 2 3 2 2 3
9 9 10 10 9 9 10 10 9 9 12 13 11 6 3 2 5 4 1 5 4 6 6 8 9 8 4 2 9 14 4 4 11 15 26 24 9 4 6 5 6 5 6 3 2 4 7 7 6 6 5 6 6 4 6 11 9 5 4 4 5 6 9 11 9 6 5 4 9 14 11 10 11 4 9 10 8 6 5 5 4 4 3 2 3 3 3 4
9 9 9 8 7 7 8 9 9 8 9 12 11 6 4 5 7 4 1 3 2 3 3 5 7 8 8 5 10 15 7 7 9 12 22 19 8 5 5 5 6 5 7 7 5 5 4 4 7 6 5 6 6 4 9 11 9 4 2 3 5 8 9 8 9 11 10 7 11 14 11 9 10 2 7 7 6 5 5 5 5 4 3 3 3 3 4 5
9 8 8 8 7 4 5 8 9 11 11 9 8 6 5 4 3 0 2 1 2 1 2 2 3 5 6 4 10 11 4 7 7 10 18 14 6 4 3 3 4 5 5 5 5 7 4 3 6 7 6 4 5 7 9 7 7 5 4 5 7 12 11 10 13 14 12 9 9 7 7 7 3 4 6 5 5 7 5 5 5 3 3 3 2 4 5 6
7 7 8 9 8 3 3 6 8 9 9 6 5 4 3 3 1 4 3 1 2 1 2 1 1 5 6 7 11 6 1 4 6 10 14 12 7 4 1 1 1 4 5 5 4 6 4 2 4 7 6 5 5 6 6 4 5 5 2 6 10 14 15 15 14 11 9 7 2 3 4 6 2 2 5 5 5 6 5 5 5 3 3 4 4 5 7 8
5 6 7 9 9 5 1 2 4 4 4 3 2 1 2 2 3 3 1 1 2 2 2 3 3 8 9 10 13 2 4 3 7 12 15 12 6 1 1 3 1 3 3 4 3 1 2 3 4 7 6 8 7 4 4 4 4 4 3 8 12 14 15 17 14 8 5 6 5 3 3 6 7 6 2 7 6 6 6 4 4 3 4 6 7 7 8 9
4 5 6 7 8 7 2 1 2 1 0 1 0 1 1 2 2 1 0 1 2 3 4 5 4 8 9 10 12 2 3 6 7 11 15 14 8 2 1 5 1 2 1 1 2 1 3 5 6 7 5 6 6 5 5 4 2 5 6 9 13 15 16 17 13 7 5 6 9 7 4 6 9 9 2 9 7 6 6 4 4 5 6 7 7 6 7 9
3 4 5 6 6 5 2 0 1 0 0 1 1 1 1 2 3 2 1 1 2 3 2 2 3 7 8 7 10 6 2 5 4 8 14 13 10 1 1 5 3 3 1 2 1 1 2 4 4 5 5 5 5 6 7 3 0 6 8 9 12 14 17 17 10 7 6 4 7 6 8 8 9 10 3 6 6 6 6 5 5 7 7 7 7 8 11 13
5 6 6 7 6 4 1 1 2 2 1 2 2 1 2 3 2 0 1 1 2 1 1 2 3 5 8 5 7 7 2 3 3 7 11 9 11 5 1 2 4 5 3 1 1 2 1 3 1 2 3 3 5 8 7 3 3 8 10 10 11 10 14 13 6 5 4 2 4 6 12 8 9 11 6 2 2 2 4 5 6 7 7 8 8 9 14 14
7 7 7 8 6 4 3 2 2 4 3 3 3 2 3 2 0 1 1 1 2 2 1 3 2 3 8 5 5 7 5 4 4 5 5 5 10 9 2 1 4 3 3 2 3 2 2 2 1 1 2 2 5 8 6 5 6 8 9 9 9 8 9 6 1 3 4 3 3 9 14 11 8 7 3 3 2 2 4 5 6 6 8 11 8 9 13 12
8 8 7 7 4 4 3 1 4 4 3 4 4 3 2 0 1 2 1 0 1 3 1 3 2 3 6 4 3 7 6 4 5 6 6 5 8 11 6 3 5 3 1 2 3 1 2 1 0 0 1 3 4 7 5 3 4 6 6 7 8 7 5 3 3 3 4 5 7 12 16 12 8 4 3 3 3 5 5 4 4 7 10 12 10 11 13 12
11 10 9 8 2 2 1 3 5 5 3 4 3 1 1 1 3 2 1 1 1 3 2 1 3 4 4 2 2 6 3 3 6 5 4 4 6 8 8 5 5 3 2 3 4 2 0 1 1 1 2 2 5 5 5 4 4 5 5 6 7 7 6 5 5 4 4 8 10 14 15 9 6 4 4 4 6 6 3 3 2 9 13 13 13 13 12 11
15 15 15 13 8 4 2 3 4 4 4 3 2 0 1 2 3 1 2 3 1 2 0 2 4 5 5 3 3 4 1 1 5 6 4 4 5 5 8 8 7 4 2 4 5 5 2 0 1 1 2 3 5 4 3 4 5 6 7 6 5 5 6 5 5 5 6 10 12 14 12 6 5 4 3 4 6 4 3 2 5 11 13 14 14 13 13 15
15 17 19 18 16 12 6 2 2 3 3 1 0 2 5 4 1 1 2 3 0 2 1 1 4 5 2 1 2 3 2 0 3 6 5 4 4 3 5 8 10 6 3 3 2 3 4 3 2 2 3 2 4 3 1 4 4 4 6 4 3 3 3 3 4 5 7 11 13 12 7 4 6 3 2 3 5 6 3 5 11 14 14 14 14 14 15 18
10 15 18 19 19 15 9 3 1 1 2 0 1 3 6 3 1 2 2 1 1 3 3 1 3 3 1 2 1 2 2 1 3 4 5 4 4 4 4 5 9 6 3 3 1 2 3 3 2 2 2 1 2 2 2 2 3 3 5 3 2 2 1 3 6 6 9 11 10 7 4 4 7 3 3 3 3 1 8 16 19 18 16 16 15 16 17 18
8 9 12 18 20 16 10 5 1 2 1 1 3 5 4 2 1 2 1 2 1 3 5 3 2 3 3 1 1 3 1 1 2 1 3 3 3 5 4 2 5 6 4 2 2 2 1 5 6 4 2 0 1 1 1 1 2 2 4 3 3 5 2 2 7 8 8 9 7 6 6 7 7 4 1 3 9 12 16 20 19 18 19 19 16 17 19 19
8 5 6 17 22 16 11 7 4 1 1 2 6 4 2 1 1 2 2 2 0 1 4 3 1 2 4 2 3 6 4 1 3 3 1 2 1 4 4 2 3 5 4 2 1 1 1 6 10 5 3 2 2 1 1 1 2 2 3 2 4 6 2 1 5 6 7 8 6 7 11 10 8 4 4 10 15 15 17 21 20 18 19 18 17 19 21 20
8 3 3 16 21 15 13 12 7 3 1 5 7 3 2 2 1 2 2 2 1 1 2 2 1 1 3 3 3 6 6 3 5 4 2 1 1 3 3 2 3 5 5 3 1 1 1 4 6 1 5 6 1 3 2 1 1 1 1 1 1 2 1 2 4 6 8 9 8 10 13 9 5 5 9 13 15 18 21 21 19 18 18 17 18 22 23 20
7 2 1 14 17 13 15 14 7 3 3 6 5 2 2 2 2 2 3 2 1 1 2 2 1 1 2 3 2 3 4 3 4 4 2 2 2 3 4 2 3 5 7 4 2 3 1 2 3 2 9 9 1 2 3 2 0 0 1 1 1 1 1 1 2 3 6 10 10 12 12 6 3 6 11 14 18 21 22 19 16 17 19 19 20 21 20 19
4 1 2 14 16 11 13 14 9 6 5 5 3 2 2 1 2 2 2 2 1 0 2 2 2 2 2 1 0 1 2 2 3 3 2 3 2 2 4 4 4 7 7 3 1 3 2 3 4 5 9 8 2 1 2 2 2 2 3 1 1 1 1 2 3 3 4 8 10 11 12 7 3 5 11 17 20 20 19 18 16 17 21 22 22 21 19 19
3 1 2 15 17 10 9 11 9 5 4 5 3 3 2 0 2 1 1 2 1 1 2 2 2 2 2 2 0 1 3 3 3 2 2 3 3 2 3 3 4 6 6 3 1 2 3 3 4 6 7 6 2 1 1 1 1 1 3 1 1 1 1 3 5 4 2 6 8 10 13 9 3 6 12 16 18 18 19 19 18 19 24 24 22 21 21 20
3 2 5 18 17 10 10 7 4 4 4 3 2 2 1 0 1 0 1 0 1 0 1 1 1 2 1 2 2 2 3 2 3 3 2 4 4 3 2 3 4 3 2 3 2 1 1 2 4 4 6 5 2 1 0 0 0 1 1 1 1 1 2 1 6 7 5 7 9 9 13 9 4 8 13 16 17 17 17 19 20 21 23 23 22 22 22 22
3 2 7 19 13 6 9 6 3 5 4 1 1 1 2 1 1 0 0 1 1 1 1 0 1 1 1 1 2 3 3 2 2 3 3 4 3 2 2 4 4 3 1 3 3 1 1 2 3 5 6 4 1 1 1 1 2 2 1 2 1 2 3 3 4 5 5 7 8 9 12 10 5 10 14 17 18 17 16 19 22 21 21 21 22 22 22 22
2 1 5 18 14 7 5 4 3 3 2 2 2 1 1 2 3 1 1 3 1 1 2 1 1 1 2 2 2 2 2 2 2 3 3 3 2 1 2 4 4 3 2 0 1 2 1 1 4 5 7 7 5 4 4 2 3 4 2 1 3 3 2 2 3 4 5 7 9 9 13 12 8 12 17 18 18 18 19 22 22 21 21 20 20 22 22 23
2 1 2 15 20 13 4 2 4 5 3 3 3 2 1 2 2 1 1 2 1 1 2 0 0 2 1 1 1 2 1 1 1 1 2 3 1 2 1 3 3 1 2 2 2 2 2 2 2 3 4 7 7 6 7 7 6 5 5 4 1 4 4 2 3 5 6 10 11 8 12 17 16 18 21 19 18 21 23 23 21 20 20 21 21 21 22 21
2 3 2 7 12 10 4 3 4 5 4 3 3 2 2 2 2 1 1 1 1 1 2 1 1 1 1 1 2 2 1 2 1 2 2 2 2 2 2 2 1 1 2 3 3 1 2 3 2 3 2 5 8 10 11 11 10 9 10 8 1 5 5 4 2 6 9 11 12 9 13 21 22 21 20 18 20 24 24 23 22 20 20 22 22 22 22 20
2 2 1 1 3 4 4 4 4 3 2 1 2 2 2 2 2 0 1 1 0 1 1 1 1 2 3 4 3 2 2 0 3 3 1 1 2 1 3 3 2 3 4 2 2 1 2 2 2 3 5 8 10 14 15 12 12 13 13 10 3 5 4 2 1 8 11 10 13 18 21 24 23 22 19 18 22 24 23 23 23 21 21 22 23 24 25 22
2 2 1 0 1 2 2 2 3 3 3 2 2 2 2 2 2 2 1 0 1 1 0 1 3 4 4 4 2 3 5 3 2 2 1 1 1 2 3 2 2 5 4 0 1 2 1 2 1 1 8 12 12 13 14 11 11 12 11 7 5 5 3 4 4 7 9 10 16 25 28 25 22 20 18 20 23 23 22 23 22 22 24 24 24 25 24 24
3 4 0 1 2 2 0 2 2 2 4 3 3 2 2 3 2 1 1 1 0 1 1 1 4 5 4 4 3 2 4 3 0 1 1 0 1 2 2 1 2 3 3 2 2 1 2 1 2 2 7 13 13 11 12 13 12 10 5 5 7 7 6 7 7 8 10 13 18 23 26 23 17 15 18 21 22 20 20 21 22 24 26 26 26 25 24 25
1 3 2 2 4 2 0 2 2 0 2 2 2 2 2 3 3 1 1 2 2 2 2 3 4 4 2 4 4 2 2 2 1 2 1 1 2 2 1 1 0 1 3 3 2 0 1 3 4 2 4 10 11 9 13 15 13 7 2 7 8 8 7 7 10 11 12 16 19 20 21 17 11 13 19 20 19 20 21 23 24 25 26 27 26 26 26 26
4 4 4 5 4 2 1 1 2 1 2 3 3 1 1 3 3 1 2 3 3 3 3 3 5 3 1 2 3 3 2 2 0 1 1 1 0 1 1 1 1 1 2 2 2 2 2 3 4 2 2 6 8 11 16 19 12 2 3 8 9 8 7 7 9 12 15 18 21 17 13 11 11 16 20 19 20 23 24 24 23 22 23 25 25 26 28 27
6 4 2 4 4 1 2 2 2 2 2 2 2 2 1 3 2 1 1 2 3 4 2 2 4 3 2 0 1 1 1 2 1 2 3 3 3 4 3 3 3 2 1 1 1 1 3 3 3 3 3 6 9 12 16 16 9 1 2 6 7 8 11 10 10 13 15 15 14 12 10 12 17 20 22 21 22 22 21 21 21 20 21 22 23 25 27 27
Wind_Direction
118 106 98 89 58 46 46 51 47 31 20 0 349 5 22 34 36 35 36 40 39 35 37 45 135 117 108 108 82 91 354 44 62 52 50 9 346 341 333 333 339 341 342 339 343 332 310 280 265 303 298 260 199 94 141 218 357 315 251 244 263 8 46 16 14 22 336 324 345 11 56 68 40 358 112 92 76 79 69 60 62 64 60 54 43 31 30 25
112 105 96 70 46 45 46 43 26 13 4 349 334 337 15 54 37 38 38 38 33 24 18 6 205 213 210 212 274 310 313 325 48 53 27 352 345 338 332 339 343 343 344 342 346 335 324 329 338 337 290 237 118 125 182 136 209 248 265 268 352 35 67 16 21 30 352 337 331 27 79 72 51 338 309 96 83 75 72 58 53 57 52 51 43 35 37 33
111 102 79 51 45 46 39 26 18 12 3 351 335 329 78 75 40 39 38 33 25 17 12 0 287 237 228 234 245 289 314 317 26 38 1 348 345 344 345 348 354 355 350 334 320 316 318 318 306 300 282 243 114 156 210 94 265 256 293 315 34 34 86 47 35 34 6 343 317 22 93 73 53 353 316 116 94 71 71 59 49 52 45 45 42 37 38 38
106 87 60 48 48 36 26 21 20 16 11 11 16 67 106 79 41 36 34 28 22 21 16 2 355 295 234 237 241 281 310 313 22 9 350 348 356 11 1 1 8 7 356 330 296 293 295 293 281 278 279 279 82 148 218 97 338 332 12 357 19 349 18 54 48 40 354 324 305 294 109 92 69 25 6 123 112 79 80 75 58 58 51 45 44 40 40 42
94 70 50 45 33 21 24 23 21 21 26 36 55 88 100 59 38 33 30 23 20 25 30 42 45 36 16 225 215 231 284 305 13 352 346 352 18 24 10 10 11 5 350 326 286 275 267 265 260 261 248 213 81 170 23 58 2 353 41 23 14 342 2 57 51 39 335 302 288 285 105 103 93 50 24 54 104 99 95 95 81 67 58 52 49 43 43 43
80 58 43 31 20 21 23 21 22 26 37 48 64 85 73 41 33 29 24 18 23 28 38 82 65 51 45 66 173 216 227 70 360 346 344 358 31 22 12 12 9 2 345 322 296 285 284 268 232 253 258 82 39 66 32 37 150 304 64 42 22 356 17 61 55 25 312 313 329 80 92 102 102 82 54 63 86 103 100 103 98 84 74 64 56 49 45 43
70 46 33 23 22 21 17 18 22 25 39 51 66 66 43 32 26 25 17 14 23 27 37 85 48 37 33 45 80 88 68 47 349 343 343 3 28 18 12 7 359 353 349 350 343 335 343 343 352 330 343 93 40 45 20 338 186 341 71 49 32 24 52 77 84 225 264 40 64 112 125 129 115 109 98 92 103 115 109 110 112 104 88 73 64 55 49 45
58 36 27 23 23 18 12 15 16 18 32 49 61 47 30 26 21 20 13 15 24 25 34 43 351 325 306 319 303 61 57 359 336 340 341 354 13 13 8 359 349 348 10 17 0 353 347 357 13 339 349 93 45 49 14 316 355 47 67 73 78 99 114 128 163 191 172 101 95 125 129 115 111 115 107 111 123 127 131 131 123 115 97 79 68 60 55 50
47 34 26 26 20 14 14 13 13 16 24 36 44 33 19 23 20 20 19 23 29 24 27 33 22 346 307 259 248 57 25 338 332 338 340 348 2 7 1 1 349 348 28 26 8 10 8 5 4 343 20 58 40 47 8 316 7 43 68 155 144 153 143 164 174 155 188 124 129 147 132 117 125 121 104 116 122 127 138 137 130 115 99 85 74 66 59 56
41 33 27 26 19 17 17 17 22 23 24 26 21 11 14 22 20 23 28 31 34 35 35 34 34 27 17 327 152 68 359 338 341 341 343 351 4 13 11 18 359 350 32 33 23 22 20 19 351 341 9 52 72 26 354 345 320 282 164 39 102 160 154 196 171 133 187 60 94 238 165 146 156 164 118 130 134 144 142 137 138 116 102 94 87 76 63 60
40 34 30 28 23 21 23 25 25 17 15 18 13 14 15 21 29 34 29 25 32 41 48 52 52 49 50 52 68 50 346 344 350 347 349 351 1 21 22 20 4 357 19 39 37 30 22 7 329 324 1 356 79 69 39 355 269 229 137 28 295 206 168 205 166 136 176 88 321 283 188 155 182 227 128 137 155 167 154 144 142 123 115 105 94 86 69 65
39 37 33 29 24 25 29 28 18 6 4 7 12 18 25 40 44 38 22 15 26 49 64 63 50 48 57 59 56 22 347 354 357 353 357 351 347 7 18 12 8 6 12 35 32 20 18 7 3 46 351 321 16 97 69 276 257 155 205 265 252 237 203 190 127 149 186 153 347 318 239 205 203 176 133 143 166 174 170 157 152 137 124 114 104 99 80 70
42 42 35 29 25 30 37 35 34 28 20 27 52 63 59 66 50 31 25 21 34 62 82 65 38 44 54 67 54 26 15 10 5 2 7 3 344 355 21 12 13 16 17 29 12 4 9 4 28 68 347 343 35 83 259 244 178 192 209 226 259 255 216 174 164 315 242 172 162 133 286 227 178 160 148 162 175 179 185 167 162 152 130 119 108 106 96 78
49 46 37 34 33 43 55 62 62 53 52 69 92 90 76 70 46 41 42 43 47 43 38 20 349 22 50 87 77 26 23 19 11 8 7 8 0 0 23 10 12 20 23 28 6 2 357 348 14 110 9 21 53 277 258 174 175 262 171 175 291 355 307 178 162 346 39 176 189 191 269 246 171 167 162 170 187 190 188 165 158 158 141 132 117 106 103 91
55 51 43 42 44 59 77 78 68 60 61 70 98 100 83 78 50 52 54 51 51 35 22 19 355 339 69 102 84 14 14 17 11 5 1 3 4 357 350 341 341 360 16 23 19 16 358 354 28 80 7 11 58 243 244 194 204 6 52 324 351 14 316 249 151 116 128 208 308 274 272 260 177 173 169 170 194 200 188 166 161 161 150 140 130 113 99 95
62 55 46 40 44 69 93 87 74 66 64 68 75 75 71 56 25 31 38 40 50 46 39 12 349 354 90 51 339 0 8 11 7 2 359 359 359 351 337 318 300 331 356 359 12 32 335 342 50 47 21 16 326 272 201 131 341 35 37 321 339 353 311 303 151 145 162 297 310 254 270 282 188 167 173 176 189 198 190 175 166 162 151 137 125 113 99 89
65 53 41 29 43 94 115 99 77 69 68 71 72 71 70 64 57 49 21 7 50 53 48 17 353 76 83 21 350 356 354 353 360 3 3 357 351 347 341 331 326 328 299 298 324 278 264 308 118 64 28 29 0 349 86 49 352 0 9 319 321 336 316 310 307 120 340 317 310 288 272 276 190 158 175 180 185 197 193 183 173 164 150 140 125 104 88 75
63 53 49 41 60 116 136 116 50 35 44 59 66 70 70 65 66 64 49 53 64 15 27 14 7 134 68 14 6 349 336 334 354 3 3 359 351 341 329 314 304 299 271 285 1 357 339 358 44 53 26 25 23 24 46 21 332 318 334 321 308 323 316 307 316 358 2 334 313 302 284 270 176 161 180 178 181 198 193 181 173 168 155 147 126 92 80 60
67 64 61 59 67 91 158 318 335 341 342 350 8 35 64 60 61 56 46 53 60 32 26 359 5 93 28 1 355 343 329 318 354 6 3 359 348 335 320 286 282 315 333 79 30 17 16 38 35 34 21 9 19 33 28 336 316 304 308 300 294 309 305 307 317 330 3 334 296 289 287 281 220 181 181 174 180 196 191 175 171 178 164 143 113 83 66 38
73 66 57 59 65 57 19 348 341 350 348 334 332 326 275 156 51 44 33 46 59 63 100 321 7 64 29 353 347 348 341 339 14 11 1 355 336 324 332 307 280 1 44 73 45 26 32 58 45 15 2 349 355 2 342 313 294 294 299 292 297 308 309 313 312 311 24 340 283 279 285 284 266 196 173 171 178 187 188 178 177 178 153 121 94 70 33 14
69 54 48 55 60 50 39 27 23 43 47 49 46 350 325 62 61 87 29 55 51 35 74 46 36 64 31 320 344 349 344 356 18 12 1 358 344 312 338 342 343 36 33 133 118 54 44 54 40 8 352 329 321 306 319 331 306 286 278 287 315 323 311 305 302 308 19 307 281 282 281 277 281 216 163 168 176 186 188 180 174 155 134 109 85 51 9 2
63 50 48 49 50 48 45 43 52 70 70 70 73 68 71 86 109 144 176 86 49 357 46 41 38 52 21 355 353 347 336 352 6 11 2 359 12 20 337 359 48 34 15 57 111 44 50 49 15 357 345 323 304 287 349 351 327 282 258 295 331 330 315 298 291 313 323 303 288 288 286 278 285 258 161 169 176 180 168 147 136 123 109 65 49 21 3 1
64 52 47 37 34 42 48 52 59 70 74 76 76 79 109 115 127 154 283 99 92 347 43 31 32 31 12 31 1 350 21 24 356 5 3 358 12 14 341 14 48 42 30 40 49 43 52 35 5 345 322 318 318 355 22 0 333 311 335 357 334 328 325 304 300 314 310 284 275 284 291 288 287 256 152 170 161 125 106 102 92 86 86 61 14 354 18 4
65 52 40 22 17 26 53 54 55 65 67 75 87 101 136 139 135 339 319 126 107 53 88 44 48 33 9 1 341 337 32 35 3 6 6 5 356 327 339 19 27 46 36 30 75 85 68 19 353 328 301 306 329 13 32 7 329 337 26 27 334 320 313 296 300 310 308 284 267 286 302 293 280 155 160 164 129 113 114 120 110 104 114 97 11 4 29 7
64 48 34 21 20 36 70 46 45 66 67 62 81 99 139 166 230 340 341 150 52 23 121 99 77 23 357 324 331 325 131 32 21 13 8 12 356 314 349 343 358 39 8 0 68 94 64 27 337 329 330 0 11 19 37 23 332 320 14 12 330 312 304 297 302 315 320 304 300 53 317 296 310 204 183 152 135 138 141 145 142 134 102 69 23 17 23 1
59 43 31 23 25 27 41 39 41 68 77 60 64 170 192 229 255 350 339 176 34 338 347 7 332 360 357 335 338 342 145 5 358 11 12 11 359 227 15 343 83 59 358 358 50 106 32 30 360 348 356 19 17 3 25 34 346 294 312 349 322 307 304 299 306 321 308 296 305 311 288 294 314 314 172 148 154 148 142 151 136 88 51 43 24 15 12 354
37 27 20 18 23 19 4 54 46 33 45 113 213 227 223 249 210 119 298 157 43 329 335 353 335 356 359 344 349 39 152 313 322 7 9 2 353 224 33 7 32 53 18 32 29 295 356 21 16 355 0 30 15 334 344 9 349 282 305 335 316 307 304 294 300 302 263 289 298 290 338 333 312 327 93 148 154 147 149 151 110 60 35 36 19 360 358 345
350 347 348 353 3 9 15 55 7 273 354 160 194 231 182 153 156 146 30 96 353 315 331 347 341 2 349 342 16 63 177 299 322 351 346 0 11 317 68 24 337 318 335 117 43 287 343 32 25 342 353 28 356 311 315 338 273 270 293 315 303 299 296 289 288 277 269 309 290 295 6 349 304 319 348 147 149 153 150 127 81 47 28 16 355 345 353 349
331 321 322 325 326 329 299 286 269 209 173 167 168 135 140 132 146 300 50 162 312 329 143 349 352 355 334 332 39 52 15 356 23 322 324 9 20 4 95 26 330 319 307 118 100 190 123 70 99 334 7 16 317 303 298 279 245 272 292 302 295 291 289 283 265 255 279 293 268 331 3 341 297 313 327 106 95 102 111 85 56 38 9 341 342 356 355 348
335 321 311 314 306 279 275 292 231 192 182 169 153 110 127 141 251 29 39 240 347 20 135 8 356 308 335 1 42 20 12 21 7 324 334 29 16 12 88 184 332 330 302 4 52 123 101 70 148 49 7 267 291 310 293 241 248 281 301 307 305 301 290 288 264 279 295 267 288 351 349 326 302 313 355 66 51 55 63 50 27 13 354 343 354 2 351 347
359 347 332 326 290 246 267 239 171 180 179 162 147 103 108 339 2 83 66 156 36 1 349 14 351 314 356 30 21 356 2 357 352 0 6 23 17 17 37 16 347 354 315 15 38 106 111 51 225 84 277 266 323 334 319 268 278 299 316 322 325 321 309 339 8 335 317 299 323 343 333 318 303 310 64 95 100 80 67 58 359 347 354 353 360 1 351 350
22 17 17 12 335 220 202 168 174 180 168 156 161 144 145 21 29 53 348 9 15 351 15 353 331 345 348 351 355 352 354 340 352 9 3 31 41 30 46 36 347 352 14 9 354 330 84 164 225 213 266 327 7 345 327 335 342 340 337 339 345 342 341 348 340 344 325 300 315 329 323 310 290 318 59 105 111 90 95 131 16 347 353 356 2 0 349 346
37 37 38 35 38 50 67 150 167 179 161 136 172 235 56 58 42 43 336 357 335 315 307 230 294 312 304 318 356 346 343 285 340 351 353 56 75 62 68 49 10 0 332 339 340 332 357 203 272 341 292 345 26 12 338 332 342 355 347 351 6 347 335 331 324 333 310 295 308 315 310 300 291 307 64 101 113 129 181 139 9 351 358 4 2 353 344 347
35 36 37 34 36 34 30 94 132 169 154 105 225 50 57 70 69 68 25 16 21 288 281 238 294 295 290 36 21 347 20 189 342 3 1 34 60 38 49 35 18 10 313 326 348 342 350 316 322 359 301 326 33 73 110 298 309 355 351 351 24 357 318 305 307 316 303 299 309 310 304 327 321 299 121 109 141 174 217 359 355 353 6 6 354 348 348 348
24 28 29 27 28 28 26 38 45 144 143 351 22 58 59 79 56 44 37 342 346 325 317 272 295 300 49 85 78 33 51 352 356 34 25 27 44 16 13 19 13 9 345 339 351 5 345 292 299 1 309 359 45 127 157 292 309 349 344 357 25 346 297 261 277 293 298 296 304 311 302 320 319 291 156 137 161 265 344 356 354 355 3 359 349 349 348 344
9 15 22 21 19 19 22 21 11 112 166 299 65 61 53 83 22 20 358 283 337 328 314 311 317 347 12 25 43 20 55 182 327 19 73 65 56 26 26 26 8 15 19 359 340 14 340 284 298 321 325 61 144 199 182 329 335 320 330 2 312 288 238 246 286 291 298 294 297 309 299 307 319 295 202 11 359 355 350 348 349 354 358 353 348 346 343 338
2 357 22 20 12 9 14 16 8 19 320 35 75 71 33 69 1 351 348 328 35 290 305 334 22 12 353 347 13 356 347 334 330 330 86 98 49 9 12 29 36 27 15 5 353 80 145 288 293 304 338 288 204 91 70 304 353 338 328 348 299 283 204 147 305 305 309 300 292 304 306 314 322 306 347 1 354 349 344 343 350 357 355 347 342 341 337 331
348 311 32 17 8 6 13 11 355 326 26 69 78 85 40 42 359 1 2 332 267 261 326 10 39 50 358 350 344 343 347 355 345 349 36 60 348 5 8 9 47 31 358 342 323 22 58 293 278 297 355 319 207 79 14 287 21 18 326 349 352 319 323 345 322 312 314 305 298 309 310 310 315 320 346 353 346 344 345 348 353 352 348 342 338 336 332 329
337 281 29 7 1 5 12 14 9 2 64 73 77 91 66 59 45 31 6 329 255 286 5 35 11 41 43 5 331 339 3 3 337 343 21 14 355 36 34 345 334 358 350 337 322 334 331 276 272 331 329 314 274 83 342 311 302 4 1 16 81 66 278 283 287 286 306 306 306 313 309 311 356 339 342 348 347 348 347 348 351 346 344 340 335 332 329 329
321 237 24 358 356 0 14 31 44 40 56 69 76 76 60 107 103 55 4 351 297 331 21 15 347 358 12 17 120 352 344 310 321 345 19 16 11 49 39 6 324 328 329 319 327 340 316 261 287 314 316 316 327 51 339 342 342 337 338 331 48 48 246 240 246 250 306 308 308 312 305 311 17 358 349 351 348 347 346 346 348 343 340 337 333 330 328 328
319 89 353 349 356 9 26 43 46 34 61 67 67 69 36 159 127 76 45 10 355 103 57 28 10 4 341 330 347 8 321 300 331 4 39 36 29 40 37 11 333 324 323 318 327 8 349 287 283 307 318 326 332 186 199 147 151 307 324 333 97 52 349 328 300 290 322 306 301 304 298 301 23 21 354 350 344 346 351 348 344 340 337 333 331 329 329 328
8 88 337 344 359 40 60 58 28 18 68 59 44 77 14 251 135 69 160 55 348 109 79 66 30 1 353 341 331 1 354 320 349 9 54 64 35 20 24 342 309 289 300 328 322 45 25 279 267 289 304 312 311 225 275 6 165 191 135 89 57 74 86 8 299 305 319 298 291 295 289 291 24 19 350 345 344 348 354 348 342 338 333 329 328 330 329 327
42 112 354 353 358 58 65 66 49 32 66 116 200 107 349 14 92 238 199 56 6 300 327 69 81 354 37 22 326 354 11 355 16 22 58 88 69 12 346 329 310 286 301 334 325 5 77 267 289 299 296 296 299 349 342 16 12 352 142 125 95 119 140 196 256 297 309 297 301 304 289 290 4 9 344 342 345 348 350 345 341 336 329 327 329 330 328 325
70 159 13 13 29 84 73 70 104 71 81 149 135 89 19 43 56 32 45 38 8 324 341 13 98 352 14 28 323 334 12 22 38 46 67 78 86 229 305 322 328 351 20 73 281 337 1 281 325 334 329 332 341 343 329 318 341 333 314 81 119 131 137 239 262 293 294 297 313 310 290 292 333 350 339 341 348 349 344 342 340 334 327 327 330 330 329 327
60 92 10 21 41 68 75 61 114 117 124 123 92 62 57 74 61 18 27 35 9 332 335 325 72 337 346 69 280 295 66 92 17 28 84 80 116 197 244 300 313 22 99 186 238 315 302 279 352 23 346 330 324 317 316 315 320 316 301 300 131 118 87 40 307 305 302 303 308 295 284 297 320 336 336 342 350 346 340 340 339 332 327 328 329 329 328 327
54 46 359 10 33 55 59 29 77 112 134 125 92 34 17 67 101 208 328 18 2 322 307 278 107 301 317 341 298 294 112 133 97 41 39 73 119 191 215 228 277 125 161 228 234 220 283 284 35 69 239 272 283 284 290 297 300 300 300 304 357 117 98 78 347 306 308 307 301 291 295 305 318 332 338 347 349 342 339 340 336 332 330 329 326 325 325 325
69 62 11 355 25 45 53 30 35 83 137 131 97 58 38 67 105 187 335 40 69 3 305 310 22 30 6 353 327 327 353 126 109 78 4 290 108 154 209 197 183 181 190 225 200 152 306 284 55 26 279 264 274 279 281 285 291 296 301 309 1 110 116 96 311 303 315 316 305 310 316 315 318 331 344 351 346 339 339 339 334 331 330 327 324 323 324 326
58 134 225 258 65 37 40 11 8 51 68 69 104 103 68 75 64 17 4 353 155 102 83 20 38 44 30 356 316 328 346 349 98 111 225 251 138 177 199 211 215 187 178 18 40 98 311 264 182 327 289 287 287 282 284 293 296 298 302 317 6 51 27 338 306 306 321 314 303 312 319 316 317 332 348 350 343 339 338 335 331 329 326 324 324 325 326 330
65 108 72 348 98 99 29 299 312 44 64 70 95 75 45 62 65 45 336 331 67 98 76 51 35 32 22 354 338 348 0 356 314 220 208 193 261 232 185 197 219 167 130 10 346 128 141 281 267 240 284 294 291 286 299 310 307 305 326 28 27 17 359 335 315 311 313 304 301 309 313 312 319 338 345 345 342 337 333 331 329 328 326 324 326 328 330 333
133 131 140 87 87 82 336 287 291 18 68 58 73 45 26 60 65 99 45 8 21 44 23 24 18 12 6 346 353 53 41 336 269 251 223 181 244 249 120 74 277 92 72 32 333 288 103 329 306 281 291 294 295 307 318 316 310 306 27 46 17 355 352 337 318 320 322 312 309 311 309 309 326 341 338 340 339 333 332 333 332 330 327 325 326 330 333 332
106 126 143 115 85 1 324 286 283 358 37 27 47 31 23 58 49 42 45 28 40 42 11 0 353 335 225 313 1 73 42 332 8 63 33 73 122 225 97 40 326 340 38 36 328 316 357 318 299 320 314 290 307 331 323 315 315 330 56 21 4 349 343 333 320 326 327 318 316 318 314 314 331 337 335 336 335 333 333 333 331 328 326 326 330 333 332 331
103 101 119 104 93 358 332 321 326 47 62 23 43 54 68 80 59 30 62 67 70 59 32 349 340 321 215 192 15 84 327 329 61 44 26 64 78 78 74 53 50 54 27 25 217 321 355 322 306 344 321 291 315 329 317 311 315 357 51 16 7 347 333 325 322 323 320 318 321 323 322 328 334 335 332 331 333 334 333 331 328 325 325 328 333 332 329 328